Location: Br�ttisellen
(47.4227°N, 8.6287°E)
Time: 07:56:37
(UTC+00:00)

USA 186 - Visible Passes

Search period start: 11 August 2020 00:00
Search period end: 21 August 2020 00:00
Orbit: 262 x 437 km, 96.9° (Epoch: 06 August)

Date Brightness Start Highest point End Pass type
(mag) Time Alt. Az. Time Alt. Az. Time Alt. Az.
13 Aug 2.9 19:20:41 10° SSW 19:22:41 29° W 19:24:43 10° NNW visible
14 Aug 4.2 19:46:45 10° WSW 19:47:43 12° W 19:48:42 10° WNW visible
16 Aug 1.4 19:04:18 10° S 19:06:30 61° W 19:08:46 10° NNW visible
17 Aug 3.5 19:29:34 10° SSW 19:31:23 21° W 19:33:14 10° NW visible
20 Aug 2.2 19:12:38 10° S 19:14:48 41° W 19:17:04 10° NNW visible
